Location: Spruce Knob
(38.6995°N, 79.5330°W)
Time: 19:09:11
(UTC-04:00)

A-11 Canister half - Pass Details

Date: 02 February 2022
Orbit: 1513 x 1686 km, 47.2° (Epoch: 26 May)

Event Time Altitude Azimuth Distance (km) Brightness Sun altitude
Rises 19:15:41 0° 295° (WNW) 4,732 12.6 -18.7°
Reaches altitude 10° 19:18:51 10° 299° (WNW) 3,727 11.8 -19.3°
Maximum altitude 19:28:09 64° 20° (NNE) 1,662 9.0 -21.1°
Enters shadow 19:32:37 34° 89° (E) 2,307 9.3 -22.0°
Drops below altitude 10° 19:37:17 10° 101° (E) 3,667 - -22.9°
Sets 19:40:22 0° 104° (ESE) 4,651 - -23.5°
